Showing default

KANYINI, 60556

Orbit data source: Space-Track

KANYINI, 60556 is an Australian payload satellite in SSO that was launched on Fri, 16 Aug 2024 UTC via an FALCON 9 launch vehicle from the Air Force Western Test Range (AFWTR). Payload-class satellites include a variety of spacecraft equipped with specific instruments for various scientific and technological missions. These include communications satellites like Starlink; space stations such as the ISS; scientific satellites like the Hubble; Earth observation satellites from companies like Planet Labs, Umbra, and HawkEye 360; GPS; miniature CubeSats for education and research; and military/defense satellites.

Loading next visibility...
Identifier
60556, 2024-149CS
Orbit
SSO
Country
Flag of AUAU / AUS
Related business
Manufacturer
INOVOR
Mission
Operational Amateur Communications
Bus & Motor
CUBESAT 6U, Unknown motor
Mass
12 kg wet, 12 kg dry
Launch date (UTC)
2024-08-16 (2 years ago)
Launch vehicle
FALCON 9
Launch site
Air Force Western Test Range (AFWTR)
Object type
Payload
Rocket body
Debris
Shape & HBR
Box + 2 Pan, 0.2 m
Radar Cross Section
0.092 m², Small (<0.1 m²)

Expand to show TLE details & history
Last TLE update: 9 hours ago

TLE from 9 hours ago
0 KANYINI
1 60556U 24149CS  26127.18219050  .00028517  00000-0  51137-3 0  9999
2 60556  97.3722 213.0512 0002024  76.3650 283.7826 15.49891463 96150
Epoch: 2026-05-07T04:22Z
TLE epoch observation values (Epoch: 2026-05-07T04:22:21.259Z)
Latitude
-0.00007°
Longitude
-77.56937°
Altitude
419.848 km
Speed
7.659 km/s
True Right ascension
14h 12m 12s
True Declination
0° 00' 00"
Sunlit
Object was in full shadow at epoch
Visualization orbit readout
Latitude
Unknown
Longitude
Unknown
Altitude
Unknown
Speed
Unknown
Apparent Right ascension
Unknown
Apparent Declination
Unknown
Sunlit
N/A
Visualization observer readout
Local Sidereal Time
21:29:13
Azimuth
Unknown
Elevation
Unknown
Doppler factor
Unknown
Orbital elements
Apogee altitude
415.343 km
Perigee altitude
412.593 km
Semi-major axis
6,792.105 km
Eccentricity
0.0002
Inclination
97.3722°
RAAN
213.0512°
Arg. of periapsis
76.365°
True anomaly
283.76007°
Mean anomaly
283.7826°
Eccentric anomaly
283.77134°
Mean motion
3.87736 °/min
Orbital period
92.85 mins
BSTAR
0.00051137
Loading maneuver chart data...
Computing Atmospheric mass density...
Loading historical data...
Loading historical data...
Loading historical data...
Loading historical data...
Loading historical data...
Loading historical data...
Loading historical data...

Documentation

Showing up to 5 results
|